Regional Weather Roundup
Issued by NWS Sioux Falls, SD

Home | Current Version | Previous Version | Graphics & Text | Print | Product List | Glossary On
Versions: 1 2 3 4 5 6 7 8 9 10 11 12 13 14 15 16 17 18 19 20 21 22 23 24 25 26 27 28 29 30 31 32 33 34 35 36 37 38 39 40 41 42 43 44 45 46 47 48 49 50
650
ASUS43 KFSD 021810
RWRFSD

WEATHER ROUNDUP FOR SE SOUTH DAKOTA/SW MINNESOTA/NW IOWA
NATIONAL WEATHER SERVICE SIOUX FALLS SD
100 PM CDT MON MAY 02 2016

NOTE: "FAIR" INDICATES FEW OR NO CLOUDS BELOW 12,000 FEET WITH NO
SIGNIFICANT WEATHER AND OR OBSTRUCTIONS TO VISIBILITY.


SDZ038>040-050-052>070-021900-
SOUTHEAST SOUTH DAKOTA

CITY           SKY/WX    TMP DP  RH WIND       PRES   REMARKS
BROOKINGS      MOSUNNY   60  32  34 MISG      30.06
CHAMBERLAIN    MOSUNNY   62  45  52 S8        30.06F
6HR MIN TEMP:  38; 6HR MAX TEMP:  62;

HURON          SUNNY     63  37  38 S8        30.04F
6HR MIN TEMP:  39; 6HR MAX TEMP:  63;

MADISON        FAIR      59  34  38 W7        30.08F
MITCHELL       MOSUNNY   61  38  42 SW6       30.08F
6HR MIN TEMP:  40; 6HR MAX TEMP:  61;

SIOUX FALLS    PTSUNNY   60  36  40 W3        30.08F
6HR MIN TEMP:  34; 6HR MAX TEMP:  62;

WINNER         FAIR      61  39  44 W10       30.08F
YANKTON        MOSUNNY   59  36  41 NW7       30.10F
$$

MNZ071-072-080-081-089-090-097-098-021900-
SOUTHWEST MINNESOTA

CITY           SKY/WX    TMP DP  RH WIND       PRES   REMARKS
FAIRMONT       CLOUDY    59  25  27 CALM      30.09F
JACKSON        SUNNY     59  32  36 CALM      30.10F
LUVERNE        MOSUNNY   61  32  33 CALM      30.09F
MARSHALL       MOSUNNY   62  32  32 VRB5      30.07F
6HR MIN TEMP:  43; 6HR MAX TEMP:  63;

MONTEVIDEO     SUNNY     66  34  30 SW5       30.08S
PIPESTONE      MOSUNNY   61  30  31 SW5       30.07F
REDWOOD FALLS  SUNNY     63  30  28 VRB3      30.07F
TRACY          CLOUDY    63  35  36 CALM      30.08F
WINDOM         SUNNY     63  32  31 CALM      30.09F
WORTHINGTON    MOSUNNY   59  33  37 CALM      30.09F
$$

IAZ001>003-012>014-020>022-031-032-NEZ013-014-SDZ071-021900-
NORTHWEST IOWA

CITY           SKY/WX    TMP DP  RH WIND       PRES   REMARKS
CHEROKEE       PTSUNNY   58  37  44 W5        30.10F
DENISON        PTSUNNY   59  41  51 NW8       30.09F
ESTHERVILLE    CLOUDY    60  40  47 NW7       30.09F
LE MARS        PTSUNNY   61  39  44 N12       30.11F
ORANGE CITY    PTSUNNY   61  39  44 N5        30.10F
SHELDON        MOSUNNY   59  37  44 VRB6G12   30.08F
SIOUX CITY     SUNNY     64  39  39 N7        30.11F
6HR MIN TEMP:  36; 6HR MAX TEMP:  64;

SPENCER        MOSUNNY   60  33  36 VRB5      30.10F
6HR MIN TEMP:  35; 6HR MAX TEMP:  61;

STORM LAKE       N/A     59  36  41 VRB7      30.11F
$$

ABBREVIATIONS USED IN REMARKS
   TC - TEMPERATURE IN CELSIUS
  WCI - WIND CHILL INDEX
   HX - HEAT INDEX
  VSB - VISIBILITY





USA.gov is the U.S. government's official web portal to all federal, state and local government web resources and services.